TimeCST,TemperatureF,Dew PointF,Humidity,Sea Level PressureIn,VisibilityMPH,Wind Direction,Wind SpeedMPH,Gust SpeedMPH,PrecipitationIn,Events,Conditions,WindDirDegrees,DateUTC
12:15 AM,30.2,17.6,60,30.20,10.0,NNW,19.6,27.6,N/A,,Mostly Cloudy,330,2013-01-20 06:15:00
12:35 AM,28.4,15.8,59,30.21,10.0,NW,15.0,23.0,N/A,,Scattered Clouds,320,2013-01-20 06:35:00
12:55 AM,28.4,14.0,55,30.22,10.0,NW,12.7,28.8,N/A,,Clear,320,2013-01-20 06:55:00
1:15 AM,26.6,8.6,47,30.23,10.0,NW,20.7,28.8,N/A,,Clear,320,2013-01-20 07:15:00
1:35 AM,24.8,8.6,50,30.24,10.0,NW,17.3,24.2,N/A,,Clear,320,2013-01-20 07:35:00
1:55 AM,24.8,6.8,46,30.25,10.0,NW,17.3,23.0,N/A,,Clear,320,2013-01-20 07:55:00
2:15 AM,23.0,8.6,54,30.27,10.0,NW,10.4,16.1,N/A,,Clear,320,2013-01-20 08:15:00
2:35 AM,23.0,6.8,50,30.28,10.0,NW,17.3,21.9,N/A,,Clear,310,2013-01-20 08:35:00
2:55 AM,21.2,5.0,50,30.29,10.0,NW,13.8,21.9,N/A,,Clear,320,2013-01-20 08:55:00
3:15 AM,21.2,5.0,50,30.31,10.0,NW,12.7,25.3,N/A,,Clear,310,2013-01-20 09:15:00
3:35 AM,21.2,3.2,46,30.31,10.0,NNW,12.7,20.7,N/A,,Clear,330,2013-01-20 09:35:00
3:55 AM,19.4,6.8,58,30.30,10.0,NW,10.4,-,N/A,,Clear,320,2013-01-20 09:55:00
4:15 AM,19.4,3.2,49,30.29,10.0,NW,15.0,21.9,N/A,,Clear,320,2013-01-20 10:15:00
4:35 AM,17.6,3.2,53,30.30,10.0,NNW,9.2,-,N/A,,Clear,330,2013-01-20 10:35:00
4:55 AM,17.6,3.2,53,30.30,10.0,NNW,10.4,-,N/A,,Clear,330,2013-01-20 10:55:00
5:15 AM,17.6,5.0,58,30.30,10.0,NNW,8.1,-,N/A,,Clear,340,2013-01-20 11:15:00
5:35 AM,17.6,5.0,58,30.31,10.0,NNW,9.2,-,N/A,,Clear,330,2013-01-20 11:35:00
6:15 AM,17.6,6.8,63,30.32,10.0,NW,5.8,-,N/A,,Clear,320,2013-01-20 12:15:00
6:35 AM,17.6,5.0,58,30.32,10.0,NW,5.8,-,N/A,,Clear,320,2013-01-20 12:35:00
6:55 AM,15.8,5.0,62,30.33,10.0,North,12.7,17.3,N/A,,Clear,350,2013-01-20 12:55:00
7:15 AM,15.8,3.2,58,30.33,10.0,NNW,6.9,-,N/A,,Clear,340,2013-01-20 13:15:00
7:35 AM,15.8,3.2,58,30.33,10.0,NNW,5.8,9.2,N/A,,Clear,330,2013-01-20 13:35:00
7:55 AM,15.8,3.2,58,30.34,10.0,NNW,5.8,-,N/A,,Clear,330,2013-01-20 13:55:00
8:15 AM,15.8,3.2,58,30.35,10.0,NNW,5.8,-,N/A,,Clear,340,2013-01-20 14:15:00
8:35 AM,17.6,3.2,53,30.34,10.0,Calm,Calm,-,N/A,,Clear,0,2013-01-20 14:35:00
8:55 AM,17.6,3.2,53,30.36,10.0,NW,4.6,-,N/A,,Clear,310,2013-01-20 14:55:00
9:15 AM,17.6,5.0,58,30.37,10.0,WNW,5.8,-,N/A,,Clear,300,2013-01-20 15:15:00
9:35 AM,19.4,3.2,49,30.37,10.0,WNW,6.9,-,N/A,,Clear,290,2013-01-20 15:35:00
9:55 AM,19.4,3.2,49,30.37,10.0,West,5.8,-,N/A,,Clear,270,2013-01-20 15:55:00
10:15 AM,19.4,3.2,49,30.37,10.0,NNW,4.6,-,N/A,,Mostly Cloudy,330,2013-01-20 16:15:00
10:35 AM,19.4,3.2,49,30.37,10.0,NW,5.8,-,N/A,,Mostly Cloudy,320,2013-01-20 16:35:00
10:55 AM,19.4,3.2,49,30.38,10.0,NNW,5.8,-,N/A,,Scattered Clouds,340,2013-01-20 16:55:00
11:15 AM,21.2,3.2,46,30.38,10.0,NNW,6.9,-,N/A,,Scattered Clouds,340,2013-01-20 17:15:00
11:35 AM,21.2,3.2,46,30.37,10.0,NW,6.9,-,N/A,,Scattered Clouds,310,2013-01-20 17:35:00
11:55 AM,21.2,5.0,50,30.36,10.0,North,6.9,-,N/A,,Scattered Clouds,350,2013-01-20 17:55:00
12:15 PM,21.2,3.2,46,30.35,10.0,NNW,8.1,-,N/A,,Scattered Clouds,340,2013-01-20 18:15:00
12:35 PM,21.2,3.2,46,30.35,10.0,North,9.2,-,N/A,,Mostly Cloudy,350,2013-01-20 18:35:00
12:55 PM,21.2,3.2,46,30.34,10.0,NNW,9.2,-,N/A,,Overcast,330,2013-01-20 18:55:00
1:15 PM,21.2,1.4,42,30.34,10.0,NNW,9.2,-,N/A,,Overcast,330,2013-01-20 19:15:00
1:35 PM,21.2,3.2,46,30.34,10.0,NW,6.9,-,N/A,,Overcast,320,2013-01-20 19:35:00
1:55 PM,21.2,3.2,46,30.34,10.0,NW,6.9,-,N/A,,Overcast,320,2013-01-20 19:55:00
2:15 PM,21.2,3.2,46,30.34,10.0,NNW,5.8,-,N/A,,Overcast,330,2013-01-20 20:15:00
2:35 PM,21.2,5.0,50,30.34,10.0,NW,8.1,-,N/A,,Overcast,320,2013-01-20 20:35:00
2:55 PM,21.2,5.0,50,30.34,10.0,NNW,5.8,-,N/A,,Overcast,330,2013-01-20 20:55:00
3:15 PM,21.2,6.8,54,30.35,10.0,NW,8.1,-,N/A,,Overcast,310,2013-01-20 21:15:00
3:35 PM,21.2,6.8,54,30.34,10.0,North,8.1,-,N/A,,Overcast,350,2013-01-20 21:35:00
3:55 PM,21.2,8.6,58,30.34,10.0,NNW,5.8,-,N/A,Snow,Light Snow,340,2013-01-20 21:55:00
4:15 PM,19.4,10.4,68,30.34,5.0,NNW,5.8,-,N/A,Snow,Light Snow,340,2013-01-20 22:15:00
4:35 PM,19.4,10.4,68,30.34,7.0,NNW,6.9,-,N/A,Snow,Light Snow,340,2013-01-20 22:35:00
4:55 PM,19.4,12.2,74,30.33,10.0,NW,9.2,-,N/A,Snow,Light Snow,310,2013-01-20 22:55:00
5:15 PM,19.4,10.4,68,30.34,7.0,NNW,5.8,-,N/A,Snow,Light Snow,330,2013-01-20 23:15:00
5:35 PM,19.4,10.4,68,30.34,5.0,NNW,4.6,-,N/A,Snow,Light Snow,330,2013-01-20 23:35:00
5:55 PM,19.4,12.2,74,30.34,5.0,NW,8.1,-,N/A,Snow,Light Snow,310,2013-01-20 23:55:00
6:15 PM,19.4,10.4,68,30.34,7.0,NW,8.1,-,N/A,Snow,Light Snow,310,2013-01-21 00:15:00
6:35 PM,19.4,10.4,68,30.35,10.0,NW,4.6,-,N/A,Snow,Light Snow,320,2013-01-21 00:35:00
6:55 PM,19.4,10.4,68,30.34,7.0,NW,6.9,-,N/A,Snow,Light Snow,320,2013-01-21 00:55:00
7:15 PM,17.6,10.4,73,30.34,5.0,NW,11.5,-,N/A,Snow,Light Snow,310,2013-01-21 01:15:00
7:35 PM,17.6,10.4,73,30.34,10.0,NW,6.9,-,N/A,Snow,Light Snow,320,2013-01-21 01:35:00
7:55 PM,17.6,10.4,73,30.34,7.0,NW,9.2,-,N/A,Snow,Light Snow,310,2013-01-21 01:55:00
8:15 PM,17.6,10.4,73,30.34,10.0,NW,9.2,-,N/A,,Overcast,320,2013-01-21 02:15:00
8:35 PM,17.6,8.6,68,30.34,10.0,NW,6.9,-,N/A,,Overcast,320,2013-01-21 02:35:00
8:55 PM,17.6,8.6,68,30.33,10.0,WNW,11.5,-,N/A,,Overcast,300,2013-01-21 02:55:00
9:15 PM,15.8,6.8,68,30.33,10.0,NW,8.1,-,N/A,,Scattered Clouds,310,2013-01-21 03:15:00
9:35 PM,15.8,6.8,68,30.33,10.0,NW,8.1,-,N/A,,Clear,310,2013-01-21 03:35:00
9:55 PM,15.8,6.8,68,30.33,10.0,WNW,6.9,-,N/A,,Clear,300,2013-01-21 03:55:00
10:15 PM,14.0,6.8,73,30.33,10.0,WNW,6.9,-,N/A,,Clear,300,2013-01-21 04:15:00
10:35 PM,14.0,6.8,73,30.33,10.0,WNW,8.1,-,N/A,,Clear,300,2013-01-21 04:35:00
10:55 PM,14.0,6.8,73,30.33,10.0,NW,8.1,-,N/A,Snow,Light Snow,310,2013-01-21 04:55:00
11:15 PM,14.0,6.8,73,30.33,10.0,West,6.9,-,N/A,,Scattered Clouds,280,2013-01-21 05:15:00
11:35 PM,14.0,6.8,73,30.34,10.0,WNW,8.1,-,N/A,,Scattered Clouds,290,2013-01-21 05:35:00
11:55 PM,14.0,6.8,73,30.33,10.0,WNW,9.2,-,N/A,Snow,Light Snow,290,2013-01-21 05:55:00